Regional Weather Roundup
Issued by NWS Memphis, TN

Home | Current Version | Previous Version | Text Only | Print | Product List | Glossary On
Versions: 1 2 3 4 5 6 7 8 9 10 11 12 13 14 15 16 17 18 19 20 21 22 23 24 25 26 27 28 29 30 31 32 33 34 35 36 37 38 39 40 41 42 43 44 45 46 47 48 49 50
000
ASUS44 KMEG 271910
RWRMEG
MEMPHIS CWA HOURLY WEATHER ROUNDUP
NATIONAL WEATHER SERVICE MEMPHIS TN
200 PM CDT WED JUL 27 2016

...WEST TENNESSEE...

CITY           SKY/WX    TMP DP  RH WIND       PRES   REMARKS
MEMPHIS INTL   PTSUNNY   92  73  53 SE13G18   29.92F HX 100
NWS MEMPHIS      N/A     90 N/A N/A MISG        N/A
JACKSON        MOSUNNY   90  74  59 E7        29.94F HX  99
LEXINGTON      MOSUNNY   90  73  58 VRB5      29.95F HX  98
DYERSBURG      SUNNY     90  77  66 MISG      29.93F HX 102
UNION CITY     MOSUNNY   91  77  62 VRB6      29.93F HX 105
PARIS          MOSUNNY   88  75  66 W3        29.97F HX  97


...EASTERN ARKANSAS...

CITY           SKY/WX    TMP DP  RH WIND       PRES   REMARKS
JONESBORO      MOSUNNY   91  78  65 NE13      29.90F HX 106
WEST MEMPHIS   CLOUDY    83  79  88 CALM      29.90F HX  94
BATESVILLE     CLOUDY    93  72  49 NE3       29.91F HX 100
NEWPORT        SUNNY     94  77  57 NE8       29.90F HX 108
WALNUT RIDGE   SUNNY     93  75  55 NE7       29.90F HX 104
BLYTHEVILLE    MOSUNNY   91  76  61 E8        29.92F HX 103
NW BLYTHEVILLE PTSUNNY   91  75  59 SE6       29.92  HX 102
SEARCY         CLOUDY    90  73  57 NW7       29.91F HX  98
STUTTGART      CLOUDY    75  70  83 SE9       29.95R THUNDER
PINE BLUFF     LGT RAIN  78  76  93 SW10      29.92F
MONTICELLO     CLOUDY    85  76  74 NW8       29.93F HX  94


...NORTH MISSISSIPPI...

CITY           SKY/WX    TMP DP  RH WIND       PRES   REMARKS
TUPELO         CLOUDY    88  73  61 SE10      29.95F HX  95
OXFORD         MOSUNNY   84  73  70 S7        29.96F HX  91
BATESVILLE     CLOUDY    84  74  70 SE7       29.95F HX  91
OLIVE BRANCH   PTSUNNY  N/A N/A N/A SE6       29.93F
TUNICA         CLOUDY    81  77  89 S10       29.94F
CLARKSDALE     CLOUDY    82  81  94 CALM      29.94F HX  95
CORINTH        PTSUNNY   90  73  58 MISG      29.95F HX  98
GREENWOOD      CLOUDY    82  74  76 SW7       29.94F
COLUMBUS       MOSUNNY   90  77  66 SE8G20    29.95F HX 102
GOLDEN TRIANGL PTSUNNY   90  72  55 S12       29.96F HX  96


...SOUTHEAST MISSOURI...

CITY           SKY/WX    TMP DP  RH WIND       PRES   REMARKS
KENNETT        SUNNY     91  77  62 E7        29.91F HX 105
WEST PLAINS    CLOUDY    87  70  56 SE7       30.00F HX  92
POPLAR BLUFF   MOSUNNY   89  76  65 SE6       29.92F HX 100
CAPE GIRARDEAU SUNNY     89  75  63 CALM      29.93F HX  99


...NORTHWEST ALABAMA...

CITY           SKY/WX    TMP DP  RH WIND       PRES   REMARKS
MUSCLE SHOALS  MOSUNNY   90  73  57 S12       30.00F HX  98


...MIDDLE TENNESSEE...

CITY           SKY/WX    TMP DP  RH WIND       PRES   REMARKS
NASHVILLE      CLOUDY    91  75  59 SW9       29.97F THUNDER HX 101
CLARKSVILLE    MOSUNNY   88  74  63 CALM      29.96F HX  96
COLUMBIA       PTSUNNY   91  73  55 S8        29.98F HX 100


...WESTERN KENTUCKY...

CITY           SKY/WX    TMP DP  RH WIND       PRES   REMARKS
PADUCAH        PTSUNNY   91  76  61 N7        29.94F HX 103
FORT CAMPBELL  MOSUNNY   90  77  64 VRB3      29.96F HX 103


...CENTRAL ARKANSAS...

CITY           SKY/WX    TMP DP  RH WIND       PRES   REMARKS
LITTLE ROCK    CLOUDY    82  73  74 NW13      29.92F THUNDER


SKY/WX REPORTED AS FAIR MEANS FEW OR NO CLOUDS BELOW
12 THOUSAND FEET.




USA.gov is the U.S. government's official web portal to all federal, state and local government web resources and services.